Location: Aurora Center
(43.5271°N, 98.5894°W)
Time: 09:50:32
(UTC-05:00)

Tiros 1 despin weight - All Passes

Search period start: 14 July 2024 00:00
Search period end: 24 July 2024 00:00
Orbit: 576 x 620 km, 48.2° (Epoch: 13 July)

Date Brightness Start Highest point End Pass type
(mag) Time Alt. Az. Time Alt. Az. Time Alt. Az.
14 Jul - 04:39:34 10° SSW 04:43:33 35° SE 04:47:36 10° ENE visible
14 Jul - 06:20:07 10° WSW 06:24:30 68° NNW 06:28:58 10° ENE daylight
14 Jul - 08:01:46 10° WNW 08:06:03 45° N 08:10:24 10° ENE daylight
14 Jul - 09:43:04 10° WNW 09:47:34 74° NNE 09:52:06 10° ESE daylight
14 Jul - 11:24:27 10° W 11:28:29 32° SW 11:32:31 10° SSE daylight
15 Jul - 03:11:29 10° SSE 03:13:07 12° SE 03:14:46 10° ESE visible
15 Jul - 04:49:13 10° SW 04:53:30 57° SSE 04:57:50 10° ENE visible
15 Jul - 06:30:21 10° W 06:34:41 54° NNW 06:39:05 10° ENE daylight
15 Jul - 08:11:58 10° WNW 08:16:17 48° N 08:20:41 10° E daylight
15 Jul - 09:53:09 10° WNW 09:57:39 79° SSW 10:02:12 10° ESE daylight
15 Jul - 11:35:03 10° W 11:38:18 20° SW 11:41:34 10° S daylight
16 Jul - 03:19:36 10° S 03:22:51 21° SE 03:26:08 10° E visible
16 Jul - 04:59:08 10° WSW 05:03:30 86° SSE 05:07:57 10° ENE visible
16 Jul - 06:40:37 10° W 06:44:54 47° N 06:49:14 10° ENE daylight
16 Jul - 08:22:05 10° WNW 08:26:29 56° NNE 08:30:56 10° E daylight
16 Jul - 10:03:17 10° WNW 10:07:39 52° SSW 10:12:04 10° SE daylight
16 Jul - 11:46:44 10° WSW 11:48:02 11° SW 11:49:20 10° SSW daylight
17 Jul - 03:28:44 10° SSW 03:32:40 34° SE 03:36:40 10° ENE visible
17 Jul - 05:09:14 10° WSW 05:13:35 69° NNW 05:18:02 10° ENE visible
17 Jul - 06:50:52 10° WNW 06:55:07 45° N 06:59:26 10° ENE daylight
17 Jul - 08:32:11 10° WNW 08:36:38 73° NNE 08:41:09 10° ESE daylight
17 Jul - 10:13:32 10° WNW 10:17:33 33° SW 10:21:36 10° SSE daylight
18 Jul - 02:00:49 10° SSE 02:02:13 11° SE 02:03:37 10° ESE visible
18 Jul - 03:38:19 10° SW 03:42:34 55° SSE 03:46:53 10° ENE visible
18 Jul - 05:19:26 10° W 05:23:44 54° NNW 05:28:07 10° ENE visible
18 Jul - 07:01:03 10° WNW 07:05:20 48° N 07:09:41 10° E daylight
18 Jul - 08:42:14 10° WNW 08:46:42 81° SSW 08:51:13 10° ESE daylight
18 Jul - 10:24:05 10° W 10:27:21 20° SW 10:30:39 10° S daylight
19 Jul - 02:08:45 10° S 02:11:55 20° SE 02:15:07 10° E visible
19 Jul - 03:48:12 10° WSW 03:52:33 84° SSE 03:56:58 10° ENE visible
19 Jul - 05:29:40 10° W 05:33:55 47° N 05:38:13 10° ENE visible
19 Jul - 07:11:08 10° WNW 07:15:31 56° NNE 07:19:56 10° E daylight
19 Jul - 08:52:19 10° WNW 08:56:41 53° SSW 09:01:04 10° SE daylight
19 Jul - 10:35:35 10° WSW 10:37:04 11° SW 10:38:32 10° SSW daylight
20 Jul - 02:17:49 10° SSW 02:21:42 33° SE 02:25:38 10° ENE visible
20 Jul - 03:58:15 10° WSW 04:02:35 70° NNW 04:07:01 10° ENE visible
20 Jul - 05:39:53 10° WNW 05:44:07 45° N 05:48:24 10° ENE visible
20 Jul - 07:21:12 10° WNW 07:25:38 71° NNE 07:30:06 10° ESE daylight
20 Jul - 09:02:32 10° WNW 09:06:33 33° SW 09:10:37 10° SSE daylight
21 Jul - 00:50:08 10° SSE 00:51:14 11° SE 00:52:19 10° ESE night (unlit)
21 Jul - 02:27:21 10° SW 02:31:33 53° SSE 02:35:50 10° ENE visible
21 Jul - 04:08:26 10° W 04:12:43 55° NNW 04:17:03 10° ENE visible
21 Jul - 05:50:02 10° WNW 05:54:18 47° N 05:58:37 10° E daylight
21 Jul - 07:31:13 10° WNW 07:35:40 83° SSW 07:40:09 10° ESE daylight
21 Jul - 09:13:02 10° W 09:16:20 20° SW 09:19:40 10° S daylight
22 Jul - 00:57:48 10° S 01:00:53 19° SE 01:04:00 10° E visible
22 Jul - 02:37:11 10° WSW 02:41:30 82° SSE 02:45:53 10° ENE visible
22 Jul - 04:18:38 10° W 04:22:51 47° N 04:27:09 10° ENE visible
22 Jul - 06:00:07 10° WNW 06:04:27 55° NNE 06:08:50 10° E daylight
22 Jul - 07:41:17 10° WNW 07:45:37 55° SSW 07:50:00 10° SE daylight
22 Jul - 09:24:24 10° WSW 09:26:01 12° SW 09:27:38 10° SSW daylight
23 Jul - 01:06:49 10° SSW 01:10:38 32° SE 01:14:31 10° E visible
23 Jul - 02:47:12 10° WSW 02:51:31 72° NNW 02:55:55 10° ENE visible
23 Jul - 04:28:50 10° WNW 04:33:01 44° N 04:37:16 10° ENE visible
23 Jul - 06:10:08 10° WNW 06:14:32 70° NNE 06:18:59 10° ESE daylight
23 Jul - 07:51:27 10° WNW 07:55:29 34° SW 07:59:32 10° SSE daylight
23 Jul - 23:39:29 10° SE 23:40:10 10° SE 23:40:50 10° ESE night (unlit)
